Location: Hope
(40.9110°N, 74.9680°W)
Time: 09:04:34
(UTC-05:00)

Envisat - Pass Details

Date: 24 January 2019
Orbit: 764 x 766 km, 98.2° (Epoch: 19 February)

Event Time Altitude Azimuth Distance (km) Brightness Sun altitude
Rises 18:51:40 0° 171° (S) 3,218 6.2 -19.7°
Reaches altitude 10° 18:53:58 10° 173° (S) 2,296 5.5 -20.1°
Maximum altitude 18:59:01 73° 258° (WSW) 804 3.2 -21.1°
Drops below altitude 10° 19:04:06 10° 343° (NNW) 2,311 5.6 -22.0°
Sets 19:06:26 0° 346° (NNW) 3,241 6.3 -22.5°
